Regional Weather Roundup
Issued by NWS Sterling, VA

Home | Current Version | Previous Version | Graphics & Text | Print | Product List | Glossary On
Versions: 1 2 3 4 5 6 7 8 9 10 11 12 13 14 15 16 17 18 19 20 21 22 23 24 25 26 27 28 29 30 31 32 33 34 35 36 37 38 39 40 41 42 43 44 45 46 47 48 49 50
000
ASUS41 KLWX 281210
RWRLWX

REGIONAL WEATHER ROUNDUP
NATIONAL WEATHER SERVICE BALTIMORE MD/WASHINGTON DC
800 AM EDT FRI AUG 28 2015

Note: "FAIR" indicates few or no clouds below 12,000 feet
with no significant weather and/or obstructions to visibility.
 TC=TEMPERATURE CELSIUS

 * =Non NWS site. Station does not report precipitation (e.g. rain,
    snow, etc.), thunder, or fog.

DCZ001-MDZ009-015-VAZ040>042-051-053>054-281300-
WASHINGTON METRO

CITY           SKY/WX    TMP DP  RH WIND       PRES   REMARKS
WASHINGTON NAT MOSUNNY   69  60  73 CALM      30.19R
DULLES         MOSUNNY   62  58  86 CALM      30.20R
ANDREWS AFB    MOSUNNY   66  59  78 N3        30.18R
FT BELVOIR     SUNNY     61  60  96 CALM      30.19R
QUANTICO       MOSUNNY   64  59  83 NW8       30.20R
COLLEGE PARK*  SUNNY     63  61  94 CALM      30.18S
LEESBURG*      MOSUNNY   63  63 100 CALM      30.21S
MANASSAS*      SUNNY     61  61 100 CALM      30.20R
GAITHERSBURG*  MOSUNNY   59  55  88 CALM      30.24R

$$

MDZ006>007-011-014-281300-
BALTIMORE METRO

CITY           SKY/WX    TMP DP  RH WIND       PRES   REMARKS
BWI AIRPORT    MOSUNNY   63  58  83 CALM      30.19R
MD SCIENCE CTR   N/A     69  56  62 MISG      30.19R
MARTIN STATE   MOSUNNY   64  61  88 CALM      30.20R
ANNAPOLIS      SUNNY     68  60  75 N3        30.18R
FORT MEADE*    SUNNY     59  57  94 CALM      30.22R

$$

MDZ012-015-019>023-281300-
MARYLAND EASTERN SHORE

CITY           SKY/WX    TMP DP  RH WIND       PRES   REMARKS
OCEAN CITY     SUNNY     66  62  87 N5        30.16R
SALISBURY      SUNNY     64  60  87 N3        30.17R
BAY BRIDGE AP*   N/A     70  59  68 CALM      30.18S
CAMBRIDGE*     SUNNY     63  61  94 CALM      30.17R
EASTON*        SUNNY     64  63  94 NE3       30.21R

$$

MDZ017>025-281300-
SOUTHERN MARYLAND

CITY           SKY/WX    TMP DP  RH WIND       PRES   REMARKS
PATUXENT RIVER MOSUNNY   69  62  78 NE5       30.17R
ST INIGOES     SUNNY     66  63  90 NE3       30.16R
LEONARDTOWN*   SUNNY     64  63  94 CALM      30.19R

$$

MDZ003>005-281300-
NORTH CENTRAL MARYLAND

CITY           SKY/WX    TMP DP  RH WIND       PRES   REMARKS
FREDERICK*     PTSUNNY   59  59 100 CALM      30.23R
HAGERSTOWN APT PTSUNNY   60  55  83 CALM      30.21R
WESTMINSTER*   PTSUNNY   61  55  82 CALM      30.21R

$$

MDZ501>502-281300-
WESTERN MARYLAND

CITY           SKY/WX    TMP DP  RH WIND       PRES   REMARKS
OAKLAND*       SUNNY     55  50  82 SE3       30.26R
CUMBERLAND*    PTSUNNY   59  54  82 CALM      30.27R

$$

VAZ025>031-281300-
SHENANDOAH VALLEY

CITY           SKY/WX    TMP DP  RH WIND       PRES   REMARKS
WINCHESTER*    MOSUNNY   61  55  82 CALM      30.21R
FRONT ROYAL*   CLOUDY    57  55  94 CALM      30.20S
LURAY*         FAIR      57  57 100 CALM      30.21S FOG
NEW MARKET*    PTSUNNY   58  56  92 CALM      30.22R
STAUNTON*      PTSUNNY   60  57  90 CALM      30.24R FOG
WAYNESBORO*    FAIR      60  57  88 CALM      30.23R

$$

WVZ021-048>050-054>055-281300-
EASTERN WEST VIRGINIA PANHANDLE

CITY           SKY/WX    TMP DP  RH WIND       PRES   REMARKS
MARTINSBURG    PTSUNNY   57  55  93 CALM      30.22R FOG
PETERSBURG*    PTSUNNY   56  55  94 CALM      30.24R

$$

VAZ036>039-050-281300-
CENTRAL FOOTHILLS

CITY           SKY/WX    TMP DP  RH WIND       PRES   REMARKS
CHARLOTTESVILL SUNNY     65  59  81 CALM      30.20R
CULPEPER*      MOSUNNY   61  58  90 CALM      30.21R
ORANGE*        SUNNY     63  59  88 CALM      30.21R
GORDONSVILLE*  FAIR      63  60  91 CALM      30.19R
WARRENTON*     PTSUNNY   62  61  99 CALM      30.19S

$$

VAZ055>057-281300-
NORTH AND CENTRAL PIEDMONT

CITY           SKY/WX    TMP DP  RH WIND       PRES   REMARKS
FREDERICKSBRG* MOSUNNY   65  64  96 CALM      30.18R
STAFFORD*      SUNNY     62  59  91 NW3       30.23R

$$

NCZ024-NYZ072-PAZ021-071-VAZ022-071-281300-
OTHER REGIONAL OBSERVATIONS

CITY           SKY/WX    TMP DP  RH WIND       PRES   REMARKS
NEW YORK CITY  SUNNY     65  53  65 CALM      30.20R
PHILADELPHIA   MOSUNNY   68  55  63 VRB5      30.19R
PITTSBURGH     SUNNY     57  52  83 CALM      30.22R
ROANOKE        MOSUNNY   65  60  84 CALM      30.23R
RICHMOND       MOSUNNY   66  60  81 N3        30.18R
RALEIGH        MOSUNNY   65  62  90 NE3       30.18R

$$

ANZ530>537-281300-
MARINE OBSERVATIONS

STATION/POSITION TIME  TEMP    WIND        PRES
                       AIR SEA DIR/SP/G
                 (UTC) (F)     (DEG/KT/KT) (MB)
THOMAS PT LIGHT  1200   70      20/  7/  8 1022.4
BALT KEY BRIDGE  1100   69     350/  3/  4 1021.6R
COVE POINT       1100   70      60/  8/  9 1022.0R
LEWISETTA        1100   73 78   50/  4/  6 1020.8R
SOLOMONS ISLAND  1100      81                N/A
PINEY POINT      1106           20/  4/  5   N/A

$$




USA.gov is the U.S. government's official web portal to all federal, state and local government web resources and services.